Stations météo

Publicité
Beauvais, France (7055): Température de l'air & dewpoint: 13.11.2017 20:00:00 - 19.11.2017 20:00:00 (CET)Beauvais, France (7055): Température de l'air 5cm: 13.11.2017 20:00:00 - 19.11.2017 20:00:00 (CET)Beauvais, France (7055): Température de l'air -20cm & Température de l'air -100cm: 13.11.2017 20:00:00 - 19.11.2017 20:00:00 (CET)Beauvais, France (7055): Vitesse du vent & gusts: 13.11.2017 20:00:00 - 19.11.2017 20:00:00 (CET)Beauvais, France (7055): Direction du vent: 13.11.2017 20:00:00 - 19.11.2017 20:00:00 (CET)Beauvais, France (7055): reduced air pressure: 13.11.2017 20:00:00 - 19.11.2017 20:00:00 (CET)Beauvais, France (7055): visibility: 13.11.2017 20:00:00 - 19.11.2017 20:00:00 (CET)Beauvais, France (7055): Ensoleillement: 13.11.2017 20:00:00 - 19.11.2017 20:00:00 (CET)Beauvais, France (7055): Quantités de précipitations: 13.11.2017 20:00:00 - 19.11.2017 20:00:00 (CET)
Date & Time tt [°C] td [°C] tt 5cm [°C] tt -20cm [°C] tt -100cm [°C] ff [km/h] ff [knt] fx [km/h] fx [knt] dd ppp [hPa] vv [km] sd [min] rr [mm]
19.11.2017 20:00:00 0,8 -0,1 -1,1 9,5 11,5 0 0 7 4 N 1025,5 10 0 0,0
19.11.2017 19:00:00 1,7 -0,2 -0,8 9,5 11,5 0 0 6 3 N 1025,4 29 0 0,0
19.11.2017 18:00:00 3,9 1,6 0,2 9,4 11,5 5 3 8 4 W 1024,8 10 0 0,0
19.11.2017 17:00:00 4,4 1,1 2,7 9,5 11,5 9 5 16 9 WNW 1024,4 10 23 0,0
19.11.2017 16:00:00 7,7 2,2 6,2 9,5 11,5 11 6 16 8 WNW 1024,2 10 29 0,0
19.11.2017 15:00:00 7,7 2,2 7,1 9,5 11,5 10 5 19 11 NNW 1024,1 48 16 0,0
19.11.2017 14:00:00 8,0 2,7 7,8 9,5 11,6 13 7 22 12 NNW 1024,2 10 44 0,0
19.11.2017 13:00:00 7,9 2,1 7,4 9,5 11,5 16 9 23 12 NNW 1024,3 10 50 0,0
19.11.2017 12:00:00 7,8 3,1 8,7 9,5 11,6 15 8 22 12 NNW 1024,3 10 60 0,0
19.11.2017 11:00:00 6,3 4,1 7,6 9,5 11,6 9 5 11 6 WNW 1024,1 45 43 0,0
19.11.2017 10:00:00 5,1 4,5 2,4 9,5 11,6 5 3 10 5 WNW 1023,6 10 46 0,0
19.11.2017 09:00:00 3,1 2,7 1,0 9,5 11,6 8 4 11 6 NW 1023,2 10 10 0,0
19.11.2017 08:00:00 1,9 1,2 1,2 9,5 11,6 9 5 11 6 NW 1022,5 10 0 0,0
19.11.2017 07:00:00 2,8 2,2 1,3 9,5 11,6 9 5 11 6 NW 1022,0 10 0 0,0
19.11.2017 06:00:00 5,2 4,3 2,8 9,5 11,6 8 4 14 7 NW 1021,4 10 0 0,0
19.11.2017 05:00:00 7,2 6,6 6,5 9,5 11,6 5 3 8 5 WNW 1021,1 10 0 0,0
19.11.2017 04:00:00 7,4 6,7 7,4 9,5 11,6 8 4 22 12 WNW 1020,6 10 0 0,0
19.11.2017 03:00:00 7,7 6,8 7,6 9,5 11,6 18 10 26 14 N 1020,7 8 0 0,2
19.11.2017 02:00:00 9,0 8,4 8,5 9,5 11,6 8 4 29 15 NW 1020,1 6 0 1,4
19.11.2017 01:00:00 9,4 8,2 8,0 9,5 11,6 21 11 37 20 WNW 1020,3 5 0 1,0
19.11.2017 00:00:00 8,9 6,9 7,4 9,5 11,7 21 11 31 17 WSW 1019,8 10 0 0,0
18.11.2017 23:00:00 8,4 6,2 7,2 9,5 11,6 22 12 33 18 WSW 1020,3 10 0 0,0
18.11.2017 22:00:00 8,2 5,8 7,2 9,5 11,7 21 11 41 22 W 1021,0 10 0 0,0
18.11.2017 21:00:00 8,5 5,6 7,3 9,5 11,7 26 14 40 22 WSW 1021,3 33 0 0,0
18.11.2017 20:00:00 8,2 5,7 6,9 9,5 11,7 22 12 32 17 WSW 1021,7 10 0 0,0
18.11.2017 19:00:00 8,1 5,6 7,1 9,5 11,7 18 10 31 17 WSW 1022,3 10 0 0,0
18.11.2017 18:00:00 8,1 5,6 7,2 9,5 11,7 17 9 26 14 WSW 1022,9 20 0 0,0
18.11.2017 17:00:00 8,1 5,4 7,4 9,5 11,6 17 9 29 16 WSW 1022,9 20 0 0,0
18.11.2017 16:00:00 8,5 5,2 8,3 9,5 11,6 16 9 31 17 WSW 1023,5 10 14 0,0
18.11.2017 15:00:00 8,7 5,1 9,4 9,5 11,7 18 10 29 16 SW 1023,9 10 53 0,0
18.11.2017 14:00:00 7,7 5,2 7,7 9,6 11,7 11 6 17 9 SW 1024,8 10 2 0,0
18.11.2017 13:00:00 6,6 4,9 7,3 9,6 11,7 9 5 19 10 WSW 1025,6 10 0 0,0
18.11.2017 12:00:00 5,9 4,9 6,7 9,6 11,7 11 6 16 9 WSW 1026,1 10 0 0,0
18.11.2017 11:00:00 5,2 4,9 5,5 9,7 11,7 11 6 16 9 W 1026,3 7 0 0,0
18.11.2017 10:00:00 3,0 2,7 3,7 9,7 11,7 0 0 6 3 N 1026,4 5 0 0,0
18.11.2017 09:00:00 1,8 1,5 2,1 9,8 11,7 2 1 7 4 SSW 1026,6 6 0 0,0
18.11.2017 08:00:00 0,3 0,0 1,3 9,9 11,7 0 0 5 3 N 1026,2 8 0 0,0
18.11.2017 07:00:00 -0,1 -0,4 -0,4 9,9 11,7 2 1 6 4 WNW 1025,8 6 0 0,0
18.11.2017 06:00:00 -1,4 -1,7 -1,7 9,9 11,7 2 1 5 3 ENE 1026,2 0,1 0 0,0
18.11.2017 05:00:00 -1,5 -1,9 -2,4 10,0 11,7 4 2 4 2 - 1026,5 0,8 0 0,0
18.11.2017 04:00:00 -1,3 -1,7 -2,2 10,0 11,7 2 1 6 4 WSW 1027,0 2,5 0 0,0
18.11.2017 03:00:00 -0,7 -1,1 -1,7 10,0 11,7 5 3 7 4 WNW 1027,4 1,1 0 0,0
18.11.2017 02:00:00 -0,6 -1,0 -1,7 10,0 11,7 8 4 9 5 WNW 1027,7 3,0 0 0,0
18.11.2017 01:00:00 -0,2 -0,8 -1,3 10,1 11,7 6 3 6 4 NW 1027,7 2,4 0 0,0
18.11.2017 00:00:00 0,6 0,2 -0,7 10,1 11,7 0 0 9 5 N 1028,2 5 0 0,0
17.11.2017 23:00:00 1,2 0,6 -0,2 10,1 11,7 5 3 8 5 WNW 1028,1 7 0 0,0
17.11.2017 22:00:00 1,6 0,7 0,4 10,1 11,7 5 3 12 6 NW 1028,0 10 0 0,0
17.11.2017 21:00:00 2,2 0,9 1,4 10,0 11,7 8 4 13 7 N 1028,3 10 0 0,0
17.11.2017 20:00:00 5,4 3,9 2,9 10,0 11,7 5 3 10 5 N 1028,1 10 0 0,0
17.11.2017 19:00:00 6,3 4,6 4,8 10,0 11,7 5 3 10 6 N 1028,1 10 0 0,0
17.11.2017 18:00:00 7,6 4,9 4,7 10,0 11,7 4 2 12 7 - 1027,9 10 0 0,0
17.11.2017 17:00:00 9,0 5,4 8,1 10,0 11,7 8 4 18 10 NE 1027,4 44 0 0,0
17.11.2017 16:00:00 10,0 6,0 9,3 9,9 11,7 13 7 21 11 N 1027,6 10 0 0,0
17.11.2017 15:00:00 10,1 6,4 9,7 9,9 11,7 8 4 17 9 N 1027,8 10 7 0,0
17.11.2017 14:00:00 10,8 7,3 11,1 9,9 11,7 5 3 16 8 E 1028,0 10 43 0,0
17.11.2017 13:00:00 10,6 8,0 10,2 9,9 11,7 9 5 22 12 E 1027,9 12 19 0,0
17.11.2017 12:00:00 9,4 7,7 9,6 9,9 11,7 15 8 24 13 NE 1028,3 10 0 0,0
17.11.2017 11:00:00 9,1 7,9 9,0 9,9 11,7 11 6 30 16 NNE 1028,5 10 0 0,0
17.11.2017 10:00:00 8,9 8,0 9,0 9,9 11,7 13 7 19 10 NNE 1028,5 10 0 0,2
17.11.2017 09:00:00 8,7 7,9 8,6 9,9 11,7 8 4 16 9 N 1028,3 9 7 0,0
17.11.2017 08:00:00 8,8 8,2 8,7 9,9 11,7 9 5 14 8 NNE 1027,5 7 0 0,0
17.11.2017 07:00:00 8,8 8,2 8,6 9,9 11,7 4 2 9 5 NNE 1027,3 4,3 0 0,0
17.11.2017 06:00:00 8,8 8,2 8,2 9,9 11,7 5 3 9 5 NNE 1026,9 4,8 0 0,0
17.11.2017 05:00:00 8,1 7,3 8,2 9,9 11,7 6 3 8 5 WNW 1026,8 4,3 0 0,0
17.11.2017 04:00:00 8,0 7,4 8,0 9,9 11,8 4 2 6 3 WNW 1026,7 5 0 1,0
17.11.2017 03:00:00 7,6 6,7 7,4 9,9 11,7 0 0 4 2 N 1026,6 5 0 0,0
17.11.2017 02:00:00 7,5 6,4 7,3 9,9 11,7 0 0 2 1 N 1026,4 7 0 0,0
17.11.2017 01:00:00 7,4 6,3 7,2 9,9 11,7 0 0 3 2 N 1026,3 8 0 0,0
17.11.2017 00:00:00 7,2 6,0 6,4 9,9 11,7 0 0 4 2 N 1026,5 8 0 0,0
16.11.2017 23:00:00 7,7 6,3 7,6 9,9 11,7 4 2 5 3 WNW 1026,4 10 0 0,0
16.11.2017 22:00:00 7,9 6,2 7,8 9,8 11,7 4 2 6 3 W 1026,3 10 0 0,0
16.11.2017 21:00:00 8,0 6,1 7,2 9,9 11,8 4 2 4 2 W 1026,2 10 0 0,0
16.11.2017 20:00:00 7,7 6,0 6,6 9,8 11,7 4 2 8 5 WSW 1025,7 10 0 0,0
16.11.2017 19:00:00 7,9 5,7 5,9 9,8 11,8 3 2 6 4 WSW 1025,4 13 0 0,0
16.11.2017 18:00:00 8,5 6,1 7,6 9,8 11,8 5 3 8 4 SW 1025,1 10 0 0,0
16.11.2017 17:00:00 9,4 6,5 8,9 9,8 11,8 5 3 7 4 - 1024,7 10 0 0,0
16.11.2017 16:00:00 10,2 6,3 11,0 9,8 11,8 4 2 9 5 SW 1024,5 25 0 0,0
16.11.2017 15:00:00 10,3 6,4 12,3 9,7 11,7 6 3 9 5 SSW 1024,2 18 0 0,0
16.11.2017 14:00:00 10,3 5,9 12,2 9,8 11,8 2 1 12 6 W 1024,2 19 0 0,0
16.11.2017 13:00:00 9,7 6,2 12,2 9,8 11,8 8 4 10 5 WSW 1024,9 10 3 0,0
16.11.2017 12:00:00 9,0 6,8 10,9 9,8 11,8 5 3 10 6 - 1025,1 10 6 0,0
16.11.2017 11:00:00 7,9 7,1 10,5 9,9 11,8 5 3 9 5 WSW 1025,5 10 28 0,0
16.11.2017 10:00:00 6,7 6,6 5,0 9,9 11,8 2 1 5 3 - 1025,2 3,7 31 0,0
16.11.2017 09:00:00 4,3 4,0 3,0 9,9 11,8 0 0 4 2 N 1024,8 0,5 11 0,0
16.11.2017 08:00:00 3,7 3,3 3,4 9,9 11,8 4 2 4 2 E 1024,4 1,6 0 0,0
16.11.2017 07:00:00 3,9 3,6 3,7 9,9 11,8 0 0 7 4 N 1024,6 0,8 0 0,0
16.11.2017 06:00:00 3,8 3,4 4,1 9,9 11,8 4 2 6 3 ESE 1024,2 4,4 0 0,0
16.11.2017 05:00:00 4,7 4,4 4,1 9,9 11,8 0 0 5 3 N 1024,3 0,7 0 0,2
16.11.2017 04:00:00 4,7 4,3 4,6 10,0 11,8 2 1 4 2 ESE 1024,7 0,9 0 0,0
16.11.2017 03:00:00 5,4 5,1 4,5 10,0 11,8 0 0 6 3 N 1024,9 2,5 0 0,0
16.11.2017 02:00:00 3,6 3,3 2,6 9,9 11,8 2 1 4 2 NW 1025,1 0,4 0 0,0
16.11.2017 01:00:00 3,8 3,2 2,6 10,0 11,8 0 0 5 3 N 1025,1 0,4 0 0,0
16.11.2017 00:00:00 5,3 4,7 3,5 10,0 11,8 5 3 9 5 SE 1025,3 0,8 0 0,0
15.11.2017 23:00:00 5,9 5,2 3,2 9,9 11,8 4 2 6 3 ESE 1025,7 4,4 0 0,0
15.11.2017 22:00:00 6,7 6,0 4,4 10,0 11,9 0 0 13 7 N 1025,8 6 0 0,0
15.11.2017 21:00:00 6,4 5,3 5,4 9,9 11,8 8 4 11 6 ESE 1025,5 6 0 0,0
15.11.2017 20:00:00 7,0 6,3 4,4 9,9 11,8 5 3 7 4 SSE 1025,5 7 0 0,0
15.11.2017 19:00:00 6,8 5,7 4,1 9,9 11,8 0 0 8 5 N 1025,7 9 0 0,0
15.11.2017 18:00:00 7,7 6,2 4,2 9,8 11,9 5 3 9 5 S 1025,4 10 0 0,0
15.11.2017 17:00:00 10,1 7,5 7,6 9,8 11,9 5 3 8 5 S 1025,5 10 0 0,0
15.11.2017 16:00:00 11,6 8,1 12,2 9,8 11,9 5 3 10 5 SSW 1025,7 10 0 0,0
15.11.2017 15:00:00 11,8 8,3 12,8 9,8 11,9 5 3 13 7 SSW 1025,5 10 0 0,0
15.11.2017 14:00:00 11,7 8,2 12,8 9,7 11,9 5 3 13 7 - 1025,7 10 0 0,0
15.11.2017 13:00:00 12,0 8,1 14,1 9,7 11,9 5 3 14 8 - 1026,1 10 0 0,0
15.11.2017 12:00:00 11,5 7,8 14,4 9,7 11,9 4 2 10 5 - 1026,3 10 33 0,0
15.11.2017 11:00:00 10,9 7,8 10,6 9,7 11,9 5 3 9 5 - 1026,7 10 42 0,0
15.11.2017 10:00:00 8,9 6,9 8,4 9,7 11,9 5 3 8 4 S 1027,0 10 58 0,0
15.11.2017 09:00:00 7,8 6,7 7,2 9,7 11,9 2 1 4 2 SE 1027,1 10 5 0,0
15.11.2017 08:00:00 7,5 6,3 7,4 9,7 11,9 0 0 7 4 N 1026,6 10 0 0,0
15.11.2017 07:00:00 7,6 6,4 7,2 9,7 11,9 5 3 8 5 S 1026,3 10 0 0,0
15.11.2017 06:00:00 7,3 6,2 7,1 9,7 11,9 4 2 7 4 SSE 1026,1 18 0 0,0
15.11.2017 05:00:00 7,5 6,1 7,2 9,7 11,9 4 2 6 3 S 1026,3 10 0 0,0
15.11.2017 04:00:00 7,8 6,1 7,4 9,7 12,0 5 3 8 4 S 1026,5 10 0 0,0
15.11.2017 03:00:00 7,8 6,1 7,5 9,7 12,0 4 2 7 4 - 1026,9 10 0 0,0
15.11.2017 02:00:00 8,2 6,0 7,6 9,7 12,0 4 2 11 6 - 1026,9 10 0 0,0
15.11.2017 01:00:00 7,9 5,9 7,5 9,6 11,9 4 2 8 4 S 1026,9 10 0 0,0
15.11.2017 00:00:00 8,3 5,9 7,7 9,7 12,0 4 2 8 5 - 1026,9 10 0 0,0
14.11.2017 23:00:00 8,4 5,9 7,7 9,6 12,0 4 2 11 6 S 1027,0 10 0 0,0
14.11.2017 22:00:00 8,4 5,7 7,6 9,7 12,0 5 3 11 6 SSW 1027,0 43 0 0,0
14.11.2017 21:00:00 8,4 5,3 7,4 9,6 12,0 8 4 15 8 WSW 1027,1 10 0 0,0
14.11.2017 20:00:00 8,3 5,0 7,2 9,6 12,0 7 4 12 7 S 1027,0 35 0 0,0
14.11.2017 19:00:00 8,2 5,0 6,7 9,6 12,0 8 4 14 8 SW 1026,8 10 0 0,0
14.11.2017 18:00:00 7,8 5,1 6,0 9,6 12,0 9 5 13 7 SW 1026,7 10 0 0,0
14.11.2017 17:00:00 8,1 4,9 6,8 9,6 12,0 8 4 18 10 SW 1026,4 10 0 0,0
14.11.2017 16:00:00 9,1 4,7 8,7 9,6 12,0 11 6 18 10 WSW 1026,4 10 0 0,0
14.11.2017 15:00:00 9,3 4,7 9,8 9,6 12,0 15 8 21 11 SW 1026,5 10 0 0,0
14.11.2017 14:00:00 8,9 5,1 9,4 9,6 12,0 11 6 19 11 SSW 1026,8 10 0 0,0
14.11.2017 13:00:00 8,7 4,3 10,0 9,7 12,0 11 6 16 9 SSW 1027,1 10 0 0,0
14.11.2017 12:00:00 8,4 3,6 9,3 9,7 12,0 8 4 12 7 SSW 1027,6 10 8 0,0
14.11.2017 11:00:00 6,8 3,4 9,4 9,8 12,0 4 2 9 5 - 1027,7 10 31 0,0
14.11.2017 10:00:00 5,4 4,5 4,1 9,8 12,1 4 2 5 3 - 1027,6 10 60 0,0
14.11.2017 09:00:00 2,0 1,7 1,1 9,8 12,1 0 0 0 0 N 1027,5 8 18 0,0
14.11.2017 08:00:00 1,3 0,9 1,6 9,9 12,1 0 0 4 2 N 1027,2 7 0 0,0
14.11.2017 07:00:00 1,3 0,9 2,2 9,9 12,1 4 2 5 3 SE 1027,0 6 0 0,0
14.11.2017 06:00:00 0,7 0,4 -0,6 10,0 12,1 0 0 6 3 N 1026,9 10 0 0,0
14.11.2017 05:00:00 -0,1 -0,7 -0,6 10,0 12,1 2 1 6 4 - 1026,8 6 0 0,0
14.11.2017 04:00:00 -0,1 -0,5 -0,5 10,1 12,1 5 3 7 4 W 1026,9 7 0 0,0
14.11.2017 03:00:00 -0,1 -0,4 -0,5 10,1 12,1 4 2 11 6 W 1027,2 7 0 0,0
14.11.2017 02:00:00 -0,1 -0,5 -0,2 10,1 12,1 8 4 16 9 WNW 1027,1 6 0 0,0
14.11.2017 01:00:00 -0,7 -1,3 -0,7 10,1 12,1 14 8 15 8 WNW 1027,0 7 0 0,0
14.11.2017 00:00:00 -0,1 -0,7 -0,2 10,2 12,1 9 5 12 7 WNW 1027,1 10 0 0,0
13.11.2017 23:00:00 0,6 -0,1 0,5 10,2 12,1 9 5 13 7 WNW 1027,4 10 0 0,0
13.11.2017 22:00:00 1,4 0,4 0,5 10,2 12,1 9 5 11 6 W 1026,9 10 0 0,0
13.11.2017 21:00:00 2,8 1,6 0,9 10,2 12,1 8 4 13 7 WNW 1026,7 10 0 0,0
13.11.2017 20:00:00 3,6 1,8 3,3 10,3 12,1 11 6 15 8 NW 1026,3 10 0 0,0

tt = Température de l'air
td = dewpoint
tt 5cm = Température de l'air 5cm
tt -20cm = Température de l'air -20cm
tt -100cm = Température de l'air -100cm
ff = Vitesse du vent
fx = gusts
dd = Direction du vent
ppp = reduced air pressure
vv = visibility
sd = Ensoleillement
rr = Quantités de précipitations

stations d'obs. à proximité